#timestamp,LO_Frequency,Hit,StdDev 
1636732815.8,286046968.1,N
1636732835.7,286046970.8,N
1636732855.5,286046968.5,N
1636732875.3,286046968.8,N
1636732895.2,286046966.1,N
1636732915.0,286046967.9,N
1636732915.9,286046967.9,Y
1636732935.7,286046990.5,P
1636732955.6,286046990.8,N
1636732975.4,286046990.2,N
1636732995.3,286046992.8,N
1636733015.1,286046990.2,N
1636733035.8,286046990.3,N
1636733055.7,286046989.0,N
1636733075.5,286046989.2,N
1636733095.3,286046990.0,N
1636733115.2,286046989.9,N
1636733135.0,286046989.6,N
1636733135.9,286046989.6,N
1636733155.8,286046988.8,Y
1636733175.6,286047001.0,P
1636733195.4,286047002.7,N
1636733215.3,286047002.7,N
1636733235.1,286046999.9,N
1636733285.9,286047002.7,E
1636733295.8,286047001.0,N
1636733315.6,286046998.3,P
1636733335.5,286047000.9,N
1636733355.3,286047001.2,N
1636733375.2,286046998.2,N
1636733395.9,286047000.6,N
1636733415.7,286046998.2,N
1636733435.6,286047001.1,N
1636733455.4,286047000.6,N
1636733475.2,286047000.9,N
1636733495.1,286046998.8,N
1636733496.0,286046998.8,N
1636733515.8,286046999.2,N
1636733535.7,286046999.1,N
1636733555.5,286046997.8,N
1636733575.3,286046997.1,N
1636733595.2,286046995.2,Y
1636733615.0,286046997.9,P
1636733615.9,286046997.9,N
1636733635.8,286046997.7,P
1636733655.6,286046999.6,N
1636733675.4,286046999.6,N
1636733695.3,286046999.4,N
1636733715.1,286046999.0,N
1636733735.8,286046998.7,N
1636733755.7,286046998.9,N
1636733775.5,286046999.5,N
1636733795.4,286046998.1,N
1636733815.2,286046998.3,N
1636733835.0,286046999.5,N
1636733835.9,286046999.5,N
1636733855.8,286046999.4,N
1636733875.6,286046997.0,Y
1636733895.4,286047001.0,P
1636733915.3,286046998.3,N
1636733935.1,286047000.3,N
1636733955.9,286047002.7,N
1636733975.7,286047002.4,N
1636733995.5,286047000.0,N
1636734015.4,286046998.6,N
1636734035.2,286047000.2,N
1636734055.0,286047000.3,N
1636734055.9,286047000.3,N
1636734075.8,286047002.7,N
1636734095.6,286047000.5,N
1636734115.5,286047002.3,N
1636734135.3,286047000.3,N
1636734155.1,286046998.8,N
1636734175.9,286046998.5,N
1636734195.7,286046999.4,N
1636734215.5,286047001.1,N
1636734235.4,286047000.4,N
1636734255.2,286047000.1,N
1636734275.1,286047002.7,N
1636734276.0,286047002.7,N
1636734295.8,286047000.6,N
1636734315.6,286047001.0,N
1636734335.5,286047000.7,N
1636734355.3,286046999.9,N
1636734375.1,286047001.0,N
1636734395.9,286047002.4,N
1636734415.7,286047002.1,N
1636734435.6,286047002.8,N
1636734455.4,286047002.1,N
1636734475.2,286047001.6,N
1636734495.1,286047002.5,N
1636734496.0,286047002.5,N
1636734515.8,286047002.3,N
1636734535.7,286047002.0,N
1636734555.5,286047003.5,N
1636734575.3,286047002.1,N
1636734595.2,286047002.6,N
1636734615.0,286047001.9,N
1636734615.9,286047001.9,N
1636734635.8,286047002.5,N
1636734655.6,286047001.5,N
1636734675.4,286047002.1,N
1636734695.3,286047004.0,Y
1636734715.1,286046999.9,P
1636734735.8,286047001.2,N
1636734755.7,286047000.1,N
1636734775.5,286047000.0,N
1636734795.4,286046999.7,N
1636734815.2,286047000.1,N
1636734835.0,286047000.6,N
1636734835.9,286047000.6,N
1636734855.8,286047000.2,N
1636734875.6,286047002.7,Y
1636734895.4,286047000.9,P
1636734915.3,286047001.0,P
1636734935.1,286047000.7,N
1636734955.9,286047000.3,N
1636734975.7,286047000.4,N
1636734995.5,286047002.8,Y
1636735015.4,286047000.9,P
1636735035.2,286047000.8,P
1636735055.1,286047001.2,P
1636735056.0,286047001.2,Y
1636735075.8,286046999.3,P
1636735095.6,286046996.8,P
1636735115.5,286046997.6,N
1636735135.3,286046997.1,N
1636735155.1,286046997.6,N
1636735175.9,286046999.5,N
1636735195.7,286046999.1,N
1636735215.6,286046998.9,N
1636735235.4,286046999.4,N
1636735255.2,286046996.5,N
1636735275.1,286046998.4,N
1636735276.0,286046998.4,N
1636735295.8,286046998.5,N
1636735315.6,286047001.0,N
1636735335.5,286046998.1,N
1636735355.3,286046998.6,N
1636735375.2,286046998.4,N
1636735395.9,286046998.2,N
1636735415.7,286046999.3,N
1636735435.6,286046999.0,N
1636735455.4,286046999.2,N
1636735475.2,286046998.7,N
1636735495.1,286046998.4,N
1636735496.0,286046998.4,N
1636735515.8,286047000.8,N
1636735535.7,286046998.4,N
1636735555.5,286046998.8,N
1636735575.3,286046998.3,N
1636735595.2,286046999.0,N
1636735615.0,286046999.0,N
1636735615.9,286046999.0,N
1636735635.7,286046999.6,N
1636735655.6,286046999.4,N
1636735675.4,286046999.4,N
1636735695.3,286046998.4,N
1636735715.1,286046999.0,N
1636735716.0,286046999.0,N
1636735735.8,286046996.8,Y
1636735755.7,286047000.8,P
1636735775.5,286047000.4,N
1636735795.3,286047000.6,N
1636735815.2,286047000.5,N
1636735835.0,286046998.4,N
1636735835.9,286046998.4,N
1636735855.8,286046998.4,N
1636735875.6,286046998.5,N
1636735895.4,286046999.4,N
1636735915.3,286046998.5,N
1636735935.1,286046999.6,N
1636735955.8,286047000.4,N
1636735975.7,286047000.3,N
1636735995.5,286047002.4,N
1636736015.4,286047002.7,N
1636736035.2,286047000.9,N
1636736055.0,286047002.4,N
1636736055.9,286047002.4,N
1636736075.8,286047002.5,N
1636736095.6,286047002.6,N
1636736115.4,286047002.3,N
1636736135.3,286047000.4,N
1636736155.1,286047000.6,N
1636736175.9,286047000.0,N
1636736195.7,286047002.7,N
1636736215.5,286047004.3,N
1636736235.4,286047001.6,N
1636736255.2,286047001.8,N
1636736275.0,286047002.0,N
1636736275.9,286047002.0,N
1636736295.8,286047002.0,N
1636736315.6,286047002.1,N
1636736335.5,286047004.0,N
1636736355.3,286047001.5,N
1636736375.1,286047002.3,N
1636736395.9,286047002.2,N
